Kalaeloa, HI

11:57 PM HST on January 19, 2018 (GMT -1000)
Kalaeloa (John Rodgers Field)

Weather History for PHJR - October, 2012

Change the Weather History Date:

Sunday, October 28, 2012

  Actual Average (PHHI) Record (PHHI)
Temperature  
Mean Temperature 76 °F -  
Max Temperature 82 °F 79 °F 86 °F (1996)
Min Temperature 70 °F 66 °F 64 °F (2002)
Cooling Degree Days 11    
Growing Degree Days 26 (Base 50)    
Moisture  
Dew Point 68 °F    
Average Humidity 81    
Maximum Humidity 94    
Minimum Humidity 58    
Precipitation  
Precipitation 0.00 in - - ()
Sea Level Pressure  
Sea Level Pressure 30.03 in    
Wind  
Wind Speed 3 mph (ENE)    
Max Wind Speed 9 mph    
Max Gust Speed 16 mph    
Visibility 10 miles    
Events Rain    
Averages and records for this station are not official NWS values.
T = Trace of Precipitation, MM = Missing Value Source: NWS Daily Summary

Daily Weather History Graph

Daily Weather History Graph

Search for Another Location

Airport or City:

Trip Planner

Search our weather history database for the weather conditions in past years. The results will help you decide how hot, cold, wet, or windy it might be!

Date:

Astronomy

Oct. 28, 2012 Rise Set
Actual Time 6:33 AM HST 5:58 PM HST
Civil Twilight 6:10 AM HST 6:20 PM HST
Nautical Twilight 5:44 AM HST 6:47 PM HST
Astronomical Twilight 5:18 AM HST 7:13 PM HST
Moon 5:22 PM HST (10/28) 5:39 AM HST (10/28)
Length of Visible Light 12h 09m
Length of Day
11h 24m
Waxing Gibbous, 99% of the Moon is Illuminated
Oct 28
Waxing Gibbous
Oct 29
Full
Nov 6
Last Quarter
Nov 13
New
Nov 20
First Quarter

Hourly Weather History & Observations

Time (HST) Temp. Heat Index Dew Point Humidity Pressure Visibility Wind Dir Wind Speed Gust Speed Precip Events Conditions
12:53 AM 73.0 °F - 68.0 °F 84% 30.06 in 10.0 mi Variable 3.5 mph - N/A   Overcast
1:18 AM 71.6 °F - 69.8 °F 94% 30.03 in 10.0 mi Calm Calm - N/A   Mostly Cloudy
1:53 AM 72.0 °F - 69.1 °F 91% 30.04 in 10.0 mi Variable 3.5 mph - N/A   Mostly Cloudy
2:38 AM 73.4 °F - 68.0 °F 83% 30.01 in 9.0 mi NE 3.5 mph - N/A   Overcast
2:53 AM 71.1 °F - 69.1 °F 93% 30.03 in 10.0 mi Calm Calm - 0.00 in Rain Light Rain
3:14 AM 71.6 °F - 69.8 °F 94% 30.01 in 10.0 mi Variable 4.6 mph - 0.00 in   Overcast
3:53 AM 71.1 °F - 69.1 °F 93% 30.02 in 10.0 mi ENE 3.5 mph - 0.00 in   Mostly Cloudy
4:53 AM 71.1 °F - 68.0 °F 90% 30.02 in 10.0 mi Calm Calm - N/A   Scattered Clouds
5:53 AM 70.0 °F - 68.0 °F 93% 30.03 in 10.0 mi Calm Calm - N/A   Mostly Cloudy
6:53 AM 70.0 °F - 66.9 °F 90% 30.04 in 10.0 mi Calm Calm - N/A   Scattered Clouds
7:53 AM 75.0 °F - 66.9 °F 76% 30.06 in 10.0 mi Variable 3.5 mph - N/A   Clear
8:53 AM 77.0 °F - 66.9 °F 71% 30.08 in 10.0 mi Variable 3.5 mph - N/A   Mostly Cloudy
9:53 AM 80.1 °F 81.7 °F 64.0 °F 58% 30.07 in 10.0 mi Variable 4.6 mph - N/A   Scattered Clouds
10:53 AM 81.0 °F 83.0 °F 66.0 °F 60% 30.06 in 10.0 mi SE 9.2 mph - N/A   Partly Cloudy
11:53 AM 80.1 °F 81.7 °F 64.0 °F 58% 30.03 in 10.0 mi Variable 6.9 mph - N/A   Mostly Cloudy
12:53 PM 80.1 °F 82.1 °F 66.0 °F 62% 30.01 in 10.0 mi Variable 5.8 mph - N/A   Mostly Cloudy
1:53 PM 82.0 °F 84.1 °F 66.0 °F 58% 29.99 in 10.0 mi Variable 4.6 mph - N/A   Overcast
2:53 PM 80.1 °F 82.3 °F 66.9 °F 64% 29.99 in 10.0 mi Variable 5.8 mph - N/A   Overcast
3:53 PM 81.0 °F 83.3 °F 66.9 °F 62% 29.99 in 10.0 mi NNE 6.9 mph - N/A   Partly Cloudy
4:53 PM 77.0 °F - 66.9 °F 71% 30.00 in 10.0 mi Variable 5.8 mph 16.1 mph N/A   Scattered Clouds
5:53 PM 75.9 °F - 68.0 °F 76% 30.01 in 10.0 mi ENE 3.5 mph - N/A   Scattered Clouds
6:53 PM 75.0 °F - 68.0 °F 79% 30.03 in 10.0 mi Variable 4.6 mph - N/A   Scattered Clouds
7:10 PM 75.2 °F - 68.0 °F 78% 30.02 in 6.0 mi Variable 4.6 mph - 0.00 in Rain Light Rain
7:53 PM 72.0 °F - 69.1 °F 91% 30.05 in 10.0 mi Variable 3.5 mph - 0.00 in   Mostly Cloudy
8:25 PM 71.6 °F - 69.8 °F 94% 30.04 in 10.0 mi ENE 4.6 mph - N/A   Overcast
8:53 PM 72.0 °F - 70.0 °F 93% 30.07 in 10.0 mi Variable 3.5 mph - 0.00 in   Overcast
9:09 PM 71.6 °F - 69.8 °F 94% 30.05 in 10.0 mi Variable 3.5 mph - N/A   Scattered Clouds
9:53 PM 72.0 °F - 69.1 °F 91% 30.07 in 10.0 mi Variable 5.8 mph - N/A   Scattered Clouds
10:53 PM 72.0 °F - 69.1 °F 91% 30.07 in 7.0 mi Calm Calm - 0.00 in Rain Light Rain
11:53 PM 72.0 °F - 69.1 °F 91% 30.06 in 10.0 mi Calm Calm - 0.00 in   Mostly Cloudy